Location: Great Snoring
(52.8667°N, 0.8833°E)
Time: 20:42:57
(UTC+00:00)

Cosmos 1400 Rocket - Pass Details

Date: 19 May 2025
Orbit: 484 x 519 km, 81.1° (Epoch: 18 June)

Event Time Altitude Azimuth Distance (km) Brightness Sun altitude
Rises 21:06:13 0° 205° (SSW) 2,558 6.0 -8.7°
Reaches altitude 10° 21:08:22 10° 211° (SSW) 1,677 5.1 -8.9°
Maximum altitude 21:11:57 50° 287° (WNW) 633 3.5 -9.2°
Drops below altitude 10° 21:15:32 10° 4° (N) 1,682 6.1 -9.6°
Sets 21:17:42 0° 10° (N) 2,567 6.9 -9.8°
